H1 CPF 2 NER 2022 5 7 9 127 01 glonass132 H2 1401201 9132 39620 2022 5 7 0 0 0 2022 5 10 23 45 0 900 1 1 0 0 0 1 H9 10 0 59706 0.00000 0 19316775.034 -16696809.089 555399.945 10 0 59706 900.00000 0 19071495.383 -16770517.101 -2681027.375 10 0 59706 1800.00000 0 18548800.775 -16540791.147 -5865546.187 10 0 59706 2700.00000 0 17798345.285 -15977828.050 -8936477.813 10 0 59706 3600.00000 0 16876337.864 -15063797.827 -11834309.454 10 0 59706 4500.00000 0 15843062.369 -13793819.145 -14502840.804 10 0 59706 5400.00000 0 14760242.264 -12176405.197 -16890269.575 10 0 59706 6300.00000 0 13688359.994 -10233359.438 -18950195.290 10 0 59706 7200.00000 0 12684043.142 -7999123.384 -20642522.024 10 0 59706 8100.00000 0 11797626.871 -5519601.269 -21934242.645 10 0 59706 9000.00000 0 11070995.062 -2850508.040 -22800089.139 10 0 59706 9900.00000 0 10535791.231 -55307.217 -23223035.875 10 0 59706 10800.00000 0 10212075.092 2797177.735 -23194645.374 10 0 59706 11700.00000 0 10107482.272 5635380.927 -22715248.874 10 0 59706 12600.00000 0 10216923.741 8387732.765 -21793956.975 10 0 59706 13500.00000 0 10522838.966 10985406.713 -20448498.868 10 0 59706 14400.00000 0 10995993.409 13364959.973 -18704891.855 10 0 59706 15300.00000 0 11596787.876 15470757.751 -16596946.340 10 0 59706 16200.00000 0 12277025.175 17257079.372 -14165614.844 10 0 59706 17100.00000 0 12982059.799 18689817.556 -11458196.930 10 0 59706 18000.00000 0 13653239.432 19747698.878 -8527415.300 10 0 59706 18900.00000 0 14230534.209 20422973.802 -5430381.237 10 0 59706 19800.00000 0 14655241.106 20721547.164 -2227470.213 10 0 59706 20700.00000 0 14872647.284 20662543.921 1018869.150 10 0 59706 21600.00000 0 14834537.726 20277329.419 4245348.104 10 0 59706 22500.00000 0 14501439.176 19608026.883 7389087.052 10 0 59706 23400.00000 0 13844503.764 18705596.500 10388854.907 10 0 59706 24300.00000 0 12846951.420 17627559.244 13186272.865 10 0 59706 25200.00000 0 11505009.309 16435463.570 15726957.923 10 0 59706 26100.00000 0 9828308.362 15192203.765 17961583.021 10 0 59706 27000.00000 0 7839720.288 13959304.453 19846832.973 10 0 59706 27900.00000 0 5574642.285 12794286.565 21346237.943 10 0 59706 28800.00000 0 3079760.075 11748225.834 22430869.040 10 0 59706 29700.00000 0 411341.552 10863605.988 23079883.781 10 0 59706 30600.00000 0 -2366867.363 10172555.695 23280912.398 10 0 59706 31500.00000 0 -5186056.789 9695541.680 23030279.076 10 0 59706 32400.00000 0 -7974976.797 9440570.868 22333055.475 10 0 59706 33300.00000 0 -10662662.918 9402932.991 21202946.884 10 0 59706 34200.00000 0 -13181151.156 9565492.517 19662014.343 10 0 59706 35100.00000 0 -15468071.432 9899515.997 17740238.868 10 0 59706 36000.00000 0 -17469013.637 10365998.916 15474936.535 10 0 59706 36900.00000 0 -19139569.918 10917435.574 12910035.785 10 0 59706 37800.00000 0 -20446970.309 11499957.461 10095230.545 10 0 59706 38700.00000 0 -21371245.505 12055750.423 7085024.942 10 0 59706 39600.00000 0 -21905869.843 12525649.494 3937687.348 10 0 59706 40500.00000 0 -22057858.947 12851802.933 714133.089 10 0 59706 41400.00000 0 -21847318.789 12980294.047 -2523243.512 10 0 59706 42300.00000 0 -21306465.399 12863611.024 -5711765.969 10 0 59706 43200.00000 0 -20478156.323 12462861.086 -8789679.058 10 0 59706 44100.00000 0 -19413994.979 11749635.685 -11697336.288 10 0 59706 45000.00000 0 -18172086.821 10707447.692 -14378348.988 10 0 59706 45900.00000 0 -16814540.605 9332679.059 -16780675.328 10 0 59706 46800.00000 0 -15404818.781 7634997.511 -18857628.545 10 0 59706 47700.00000 0 -14005047.357 5637222.720 -20568785.016 10 0 59706 48600.00000 0 -12673397.515 3374645.131 -21880774.627 10 0 59706 49500.00000 0 -11461648.392 893823.201 -22767937.921 10 0 59706 50400.00000 0 -10413033.269 -1749093.299 -23212836.790 10 0 59706 51300.00000 0 -9560459.766 -4490446.547 -23206608.113 10 0 59706 52200.00000 0 -8925179.321 -7261475.897 -22749152.504 10 0 59706 53100.00000 0 -8515962.698 -9990946.505 -21849153.323 10 0 59706 54000.00000 0 -8328817.103 -12607893.067 -20523924.263 10 0 59706 54900.00000 0 -8347257.858 -15044364.941 -18799087.082 10 0 59706 55800.00000 0 -8543124.062 -17238058.094 -16708084.498 10 0 59706 56700.00000 0 -8877904.473 -19134723.602 -14291536.591 10 0 59706 57600.00000 0 -9304517.884 -20690251.228 -11596452.495 10 0 59706 58500.00000 0 -9769472.489 -21872339.925 -8675312.419 10 0 59706 59400.00000 0 -10215312.138 -22661684.391 -5585038.068 10 0 59706 60300.00000 0 -10583244.632 -23052627.304 -2385872.142 10 0 59706 61200.00000 0 -10815839.093 -23053249.658 859809.998 10 0 59706 62100.00000 0 -10859676.188 -22684895.804 4088731.898 10 0 59706 63000.00000 0 -10667836.977 -21981154.196 7237965.092 10 0 59706 63900.00000 0 -10202123.118 -20986338.226 10246169.542 10 0 59706 64800.00000 0 -9434912.950 -19753533.070 13054799.729 10 0 59706 65700.00000 0 -8350573.839 -18342292.829 15609251.639 10 0 59706 66600.00000 0 -6946370.545 -16816086.954 17859927.458 10 0 59706 67500.00000 0 -5232831.113 -15239605.102 19763197.034 10 0 59706 68400.00000 0 -3233555.082 -13676034.915 21282237.697 10 0 59706 69300.00000 0 -984472.502 -12184427.649 22387736.922 10 0 59706 70200.00000 0 1467414.691 -10817262.018 23058445.400 10 0 59706 71100.00000 0 4065755.930 -9618307.503 23281571.346 10 0 59706 72000.00000 0 6746967.731 -8620875.178 23053009.964 10 0 59706 72900.00000 0 9442653.873 -7846527.324 22377405.273 10 0 59706 73800.00000 0 12082229.926 -7304297.616 21268044.478 10 0 59706 74700.00000 0 14595643.852 -6990452.291 19746588.071 10 0 59706 75600.00000 0 16916081.013 -6888800.166 17842641.647 10 0 59706 76500.00000 0 18982542.765 -6971536.712 15593178.078 10 0 59706 77400.00000 0 20742193.166 -7200585.506 13041821.247 10 0 59706 78300.00000 0 22152378.045 -7529379.885 10238004.868 10 0 59706 79200.00000 0 23182234.074 -7905009.652 7236022.047 10 0 59706 80100.00000 0 23813822.266 -8270642.684 4093983.253 10 0 59706 81000.00000 0 24042739.830 -8568119.951 872701.977 10 0 59706 81900.00000 0 23878185.629 -8740615.272 -2365471.316 10 0 59706 82800.00000 0 23342476.911 -8735248.361 -5557845.184 10 0 59706 83700.00000 0 22470037.537 -8505541.528 -8642590.865 10 0 59706 84600.00000 0 21305899.682 -8013616.618 -11559931.092 10 0 59706 85500.00000 0 19903781.099 -7232039.434 -14253291.577 10 0 59707 0.00000 0 18323817.756 -6145233.307 -16670393.269 10 0 59707 900.00000 0 16630044.927 -4750400.395 -18764265.843 10 0 59707 1800.00000 0 14887733.477 -3057911.724 -20494159.771 10 0 59707 2700.00000 0 13160689.148 -1091145.375 -21826343.701 10 0 59707 3600.00000 0 11508629.347 1114221.631 -22734768.183 10 0 59707 4500.00000 0 9984746.098 3511441.395 -23201583.742 10 0 59707 5400.00000 0 8633557.227 6044394.420 -23217502.366 10 0 59707 6300.00000 0 7489135.974 8649691.776 -22781994.414 10 0 59707 7200.00000 0 6573793.767 11259094.367 -21903315.961 10 0 59707 8100.00000 0 5897272.048 13802150.046 -20598364.744 10 0 59707 9000.00000 0 5456477.800 16208939.476 -18892366.107 10 0 59707 9900.00000 0 5235774.643 18412816.357 -16818393.791 10 0 59707 10800.00000 0 5207817.692 20353027.295 -14416733.745 10 0 59707 11700.00000 0 5334897.137 21977101.019 -11734102.581 10 0 59707 12600.00000 0 5570733.602 23242905.804 -8822735.561 10 0 59707 13500.00000 0 5862648.615 24120287.763 -5739362.020 10 0 59707 14400.00000 0 6154017.106 24592220.275 -2544088.817 10 0 59707 15300.00000 0 6386896.455 24655415.587 700785.210 10 0 59707 16200.00000 0 6504718.735 24320372.753 3931999.254 10 0 59707 17100.00000 0 6454930.000 23610860.335 7086579.331 10 0 59707 18000.00000 0 6191462.792 22562856.643 10103079.717 10 0 59707 18900.00000 0 5676935.434 21222993.648 12922791.249 10 0 59707 19800.00000 0 4884483.618 19646571.827 15490891.750 10 0 59707 20700.00000 0 3799146.066 17895231.377 17757515.224 10 0 59707 21600.00000 0 2418745.293 16034379.419 19678718.806 10 0 59707 22500.00000 0 754226.393 14130482.583 21217328.935 10 0 59707 23400.00000 0 -1170560.062 12248339.381 22343651.026 10 0 59707 24300.00000 0 -3319621.445 10448446.789 23036030.128 10 0 59707 25200.00000 0 -5646100.391 8784570.628 23281253.174 10 0 59707 26100.00000 0 -8094012.229 7301620.155 23074786.640 10 0 59707 27000.00000 0 -10600369.998 6033913.816 22420846.619 10 0 59707 27900.00000 0 -13097608.806 5003906.363 21332301.379 10 0 59707 28800.00000 0 -15516209.206 4221428.139 19830409.430 10 0 59707 29700.00000 0 -17787411.512 3683465.857 17944398.956 10 0 59707 30600.00000 0 -19845909.487 3374491.817 15710897.120 10 0 59707 31500.00000 0 -21632412.816 3267325.980 13173220.323 10 0 59707 32400.00000 0 -23095973.341 3324493.337 10380538.827 10 0 59707 33300.00000 0 -24195979.731 3500018.783 7386931.283 10 0 59707 34200.00000 0 -24903738.780 3741583.734 4250346.756 10 0 59707 35100.00000 0 -25203578.496 3992953.823 1031493.418 10 0 59707 36000.00000 0 -25093427.652 4196575.856 -2207325.502 10 0 59707 36900.00000 0 -24584847.939 4296235.128 -5403406.825 10 0 59707 37800.00000 0 -23702517.331 4239661.592 -8494851.290 10 0 59707 38700.00000 0 -22483185.852 3980975.341 -11421753.665 10 0 59707 39600.00000 0 -20974146.679 3482868.326 -14127356.615 10 0 59707 40500.00000 0 -19231285.607 2718429.978 -16559146.537 10 0 59707 41400.00000 0 -17316789.279 1672538.902 -18669870.561 10 0 59707 42300.00000 0 -15296606.934 342760.677 -20418455.170 10 0 59707 43200.00000 0 -13237770.649 -1260287.941 -21770808.729 10 0 59707 44100.00000 0 -11205685.128 -3113126.091 -22700492.217 10 0 59707 45000.00000 0 -9261499.645 -5180141.939 -23189244.676 10 0 59707 45900.00000 0 -7459671.518 -7414843.916 -23227352.555 10 0 59707 46800.00000 0 -5845822.846 -9761580.440 -22813854.822 10 0 59707 47700.00000 0 -4454980.392 -12157658.517 -21956578.703 10 0 59707 48600.00000 0 -3310272.635 -14535774.598 -20672004.040 10 0 59707 49500.00000 0 -2422139.114 -16826657.468 -18984957.522 10 0 59707 50400.00000 0 -1788085.841 -18961813.218 -16928141.439 10 0 59707 51300.00000 0 -1392997.400 -20876257.511 -14541504.999 10 0 59707 52200.00000 0 -1209992.738 -22511120.162 -11871469.608 10 0 59707 53100.00000 0 -1201788.372 -23816011.784 -8970022.903 10 0 59707 54000.00000 0 -1322510.702 -24751051.979 -5893699.244 10 0 59707 54900.00000 0 -1519879.656 -25288472.614 -2702467.172 10 0 59707 55800.00000 0 -1737669.670 -25413727.699 541453.342 10 0 59707 56700.00000 0 -1918341.781 -25126062.535 3774819.334 10 0 59707 57600.00000 0 -2005733.218 -24438518.059 6934613.367 10 0 59707 58500.00000 0 -1947688.389 -23377370.657 9959285.953 10 0 59707 59400.00000 0 -1698517.877 -21981032.071 12789966.107 10 0 59707 60300.00000 0 -1221179.752 -20298457.080 15371615.160 10 0 59707 61200.00000 0 -489089.837 -18387127.610 17654100.459 10 0 59707 62100.00000 0 512516.166 -16310699.616 19593167.761 10 0 59707 63000.00000 0 1785726.295 -14136412.869 21151293.710 10 0 59707 63900.00000 0 3319637.488 -11932373.220 22298402.503 10 0 59707 64800.00000 0 5090595.032 -9764821.469 23012434.101 10 0 59707 65700.00000 0 7062975.723 -7695502.639 23279754.429 10 0 59707 66600.00000 0 9190481.390 -5779244.623 23095401.219 10 0 59707 67500.00000 0 11417888.447 -4061845.521 22463162.360 10 0 59707 68400.00000 0 13683180.481 -2578355.698 21395486.659 10 0 59707 69300.00000 0 15919975.271 -1351823.778 19913229.894 10 0 59707 70200.00000 0 18060145.851 -392556.307 18045241.873 10 0 59707 71100.00000 0 20036527.526 302080.515 15827802.869 10 0 59707 72000.00000 0 21785599.273 747310.923 13303920.395 10 0 59707 72900.00000 0 23250029.243 970068.014 10522499.618 10 0 59707 73800.00000 0 24380979.644 1007618.771 7537402.834 10 0 59707 74700.00000 0 25140076.061 905754.198 4406415.545 10 0 59707 75600.00000 0 25500960.065 716620.944 1190138.219 10 0 59707 76500.00000 0 25450360.947 496285.592 -2049175.735 10 0 59707 77400.00000 0 24988642.078 302133.797 -5248814.097 10 0 59707 78300.00000 0 24129798.976 190213.424 -8346809.841 10 0 59707 79200.00000 0 22900908.658 212633.259 -11283132.451 10 0 59707 80100.00000 0 21341052.483 415126.710 -14000844.085 10 0 59707 81000.00000 0 19499756.399 834883.277 -16447198.750 10 0 59707 81900.00000 0 17435012.455 1498739.729 -18574663.621 10 0 59707 82800.00000 0 15210962.899 2421808.123 -20341842.903 10 0 59707 83700.00000 0 12895342.168 3606599.929 -21714286.409 10 0 59707 84600.00000 0 10556782.289 5042685.133 -22665167.062 10 0 59707 85500.00000 0 8262093.180 6706902.924 -23175813.691 10 0 59708 0.00000 0 6073630.744 8564117.607 -23236088.218 10 0 59708 900.00000 0 4046860.989 10568491.742 -22844598.899 10 0 59708 1800.00000 0 2228224.767 12665223.074 -22008744.373 10 0 59708 2700.00000 0 653388.502 14792678.025 -20744586.462 10 0 59708 3600.00000 0 -654042.565 16884831.551 -19076552.633 10 0 59708 4500.00000 0 -1683295.482 18873913.118 -17036972.710 10 0 59708 5400.00000 0 -2436652.158 20693148.051 -14665457.686 10 0 59708 6300.00000 0 -2929113.901 22279478.970 -12008131.882 10 0 59708 7200.00000 0 -3187522.169 23576152.136 -9116733.025 10 0 59708 8100.00000 0 -3249173.229 24535058.816 -6047597.884 10 0 59708 9000.00000 0 -3159986.294 25118731.750 -2860553.766 10 0 59708 9900.00000 0 -2972304.078 25301911.319 382261.339 10 0 59708 10800.00000 0 -2742420.770 25072614.398 3617625.556 10 0 59708 11700.00000 0 -2527944.268 24432660.213 6782481.278 10 0 59708 12600.00000 0 -2385106.594 23397630.993 9815178.506 10 0 59708 13500.00000 0 -2366138.514 21996269.533 12656687.561 10 0 59708 14400.00000 0 -2516821.319 20269340.014 15251756.253 10 0 59708 15300.00000 0 -2874320.633 18268001.300 17549988.016 10 0 59708 16200.00000 0 -3465394.648 16051762.522 19506819.731 10 0 59708 17100.00000 0 -4305052.694 13686108.000 21084380.461 10 0 59708 18000.00000 0 -5395720.476 11239892.136 22252215.088 10 0 59708 18900.00000 0 -6726946.598 8782613.752 22987860.025 10 0 59708 19800.00000 0 -8275662.022 6381683.658 23277261.312 10 0 59708 20700.00000 0 -10006980.806 4099798.762 23115028.589 10 0 59708 21600.00000 0 -11875508.079 1992530.778 22504521.670 10 0 59708 22500.00000 0 -13827100.223 106228.017 21457769.449 10 0 59708 23400.00000 0 -15801003.752 -1523684.628 19995223.922 10 0 59708 24300.00000 0 -17732284.004 -2873939.310 18145354.869 10 0 59708 25200.00000 0 -19554443.087 -3934143.649 15944093.449 10 0 59708 26100.00000 0 -21202118.811 -4706956.419 13434135.566 10 0 59708 27000.00000 0 -22613753.196 -5207715.297 10664118.145 10 0 59708 27900.00000 0 -23734120.417 -5463534.013 7687683.686 10 0 59708 28800.00000 0 -24516609.716 -5511907.894 4562450.495 10 0 59708 29700.00000 0 -24925168.889 -5398887.040 1348907.620 10 0 59708 30600.00000 0 -24935827.715 -5176894.179 -1890745.050 10 0 59708 31500.00000 0 -24537737.930 -4902278.817 -5093789.875 10 0 59708 32400.00000 0 -23733686.100 -4632710.376 -8198195.531 10 0 59708 33300.00000 0 -22540057.387 -4424519.647 -11143809.501 10 0 59708 34200.00000 0 -20986250.835 -4330100.245 -13873516.478 10 0 59708 35100.00000 0 -19113569.350 -4395479.398 -16334340.805 10 0 59708 36000.00000 0 -16973629.269 -4658160.583 -18478472.049 10 0 59708 36900.00000 0 -14626354.346 -5145329.463 -20264193.993 10 0 59708 37800.00000 0 -12137636.223 -5872499.691 -21656699.202 10 0 59708 38700.00000 0 -9576757.366 -6842657.089 -22628773.210 10 0 59708 39600.00000 0 -7013682.601 -8045940.133 -23161334.651 10 0 59708 40500.00000 0 -4516331.014 -9459872.435 -23243820.261 10 0 59708 41400.00000 0 -2147941.123 -11050139.941 -22874406.335 10 0 59708 42300.00000 0 35361.135 -12771882.611 -22060061.219 10 0 59708 43200.00000 0 1986690.296 -14571448.633 -20816426.516 10 0 59708 44100.00000 0 3670136.075 -16388539.402 -19167527.912 10 0 59708 45000.00000 0 5062031.955 -18158656.448 -17145319.935 10 0 59708 45900.00000 0 6151704.200 -19815748.215 -14789072.355 10 0 59708 46800.00000 0 6941669.649 -21294945.438 -12144609.274 10 0 59708 47700.00000 0 7447273.954 -22535269.357 -9263415.354 10 0 59708 48600.00000 0 7695785.943 -23482197.676 -6201626.644 10 0 59708 49500.00000 0 7724987.181 -24089978.702 -3018926.198 10 0 59708 50400.00000 0 7581317.626 -24323594.567 222632.849 10 0 59708 51300.00000 0 7317657.577 -24160289.360 3459852.379 10 0 59708 52200.00000 0 6990841.865 -23590596.634 6629637.056 10 0 59708 53100.00000 0 6659013.769 -22618822.385 9670238.539 10 0 59708 54000.00000 0 6378932.868 -21262963.106 12522470.351 10 0 59708 54900.00000 0 6203352.775 -19554062.826 15130868.375 10 0 59708 55800.00000 0 6178581.188 -17535037.139 17444773.419 10 0 59708 56700.00000 0 6342326.418 -15259014.775 19419314.457 10 0 59708 57600.00000 0 6721921.764 -12787267.474 21016273.605 10 0 59708 58500.00000 0 7333002.491 -10186815.963 22204816.736 10 0 59708 59400.00000 0 8178690.557 -7527812.786 22962076.692 10 0 59708 60300.00000 0 9249320.581 -4880811.364 23273579.306 10 0 59708 61200.00000 0 10522717.546 -2314034.759 23133505.532 10 0 59708 62100.00000 0 11965013.707 109243.244 22544786.268 10 0 59708 63000.00000 0 13531969.831 2333097.441 21519029.462 10 0 59708 63900.00000 0 15170745.062 4311033.154 20076282.123 10 0 59708 64800.00000 0 16822041.433 6007666.704 18244632.658 10 0 59708 65700.00000 0 18422533.772 7399937.052 16059661.640 10 0 59708 66600.00000 0 19907484.122 8477800.617 13563751.759 10 0 59708 67500.00000 0 21213432.373 9244382.660 10805269.963 10 0 59708 68400.00000 0 22280851.662 9715580.877 7837637.074 10 0 59708 69300.00000 0 23056658.529 9919139.270 4718302.175 10 0 59708 70200.00000 0 23496473.725 9893232.165 1507640.730 10 0 59708 71100.00000 0 23566539.684 9684618.340 -1732203.157 10 0 59708 72000.00000 0 23245214.704 9346442.904 -4938508.749 10 0 59708 72900.00000 0 22523981.166 8935779.205 -8049182.748 10 0 59708 73800.00000 0 21407925.039 8511013.805 -11003952.888 10 0 59708 74700.00000 0 19915665.678 8129184.182 -13745528.517 10 0 59708 75600.00000 0 18078737.487 7843380.908 -16220706.286 10 0 59708 76500.00000 0 15940447.633 7700323.579 -18381399.942 10 0 59708 77400.00000 0 13554255.759 7738212.723 -20185574.483 10 0 59708 78300.00000 0 10981741.309 7984948.706 -21598066.705 10 0 59708 79200.00000 0 8290241.368 8456793.606 -22591276.100 10 0 59708 80100.00000 0 5550255.768 9157533.783 -23145712.297 10 0 59708 81000.00000 0 2832726.059 10078180.188 -23250387.854 10 0 59708 81900.00000 0 206300.524 11197221.107 -22903047.857 10 0 59708 82800.00000 0 -2265301.481 12481418.894 -22110230.750 10 0 59708 83700.00000 0 -4525716.392 13887119.339 -20887157.938 10 0 59708 84600.00000 0 -6528053.328 15362020.531 -19257452.914 10 0 59708 85500.00000 0 -8236612.230 16847328.211 -17252694.056 10 0 59709 0.00000 0 -9628130.978 18280207.711 -14911808.833 10 0 59709 900.00000 0 -10692509.584 19596430.228 -12280319.004 10 0 59709 1800.00000 0 -11432979.054 20733099.600 -9409454.315 10 0 59709 2700.00000 0 -11865710.515 21631346.203 -6355147.743 10 0 59709 3600.00000 0 -12018879.738 22238870.970 -3176935.509 10 0 59709 4500.00000 0 -11931228.400 22512231.287 63216.859 10 0 59709 5400.00000 0 -11650184.274 22418770.485 3302137.877 10 0 59709 6300.00000 0 -11229621.811 21938108.038 6476697.416 10 0 59709 7200.00000 0 -10727359.998 21063126.514 9525051.765 10 0 59709 8100.00000 0 -10202505.621 19800413.147 12387860.583 10 0 59709 9000.00000 0 -9712756.442 18170137.359 15009450.702 10 0 59709 9900.00000 0 -9311780.011 16205369.932 17338903.061 10 0 59709 10800.00000 0 -9046780.148 13950873.248 19331041.312 10 0 59709 11700.00000 0 -8956354.421 11461414.326 20947303.026 10 0 59709 12600.00000 0 -9068732.987 8799672.338 22156477.192 10 0 59709 13500.00000 0 -9400472.435 6033828.799 22935294.919 10 0 59709 14400.00000 0 -9955658.645 3234941.290 23268863.299 10 0 59709 15300.00000 0 -10725650.944 474210.014 23150935.639 10 0 59709 16200.00000 0 -11689377.056 -2179749.825 22584014.478 10 0 59709 17100.00000 0 -12814165.391 -4663517.855 21579286.848 10 0 59709 18000.00000 0 -14057078.931 -6921253.814 20156394.225 10 0 59709 18900.00000 0 -15366694.396 -8906761.470 18343042.517 10 0 59709 19800.00000 0 -16685252.167 -10585147.803 16174460.024 10 0 59709 20700.00000 0 -17951087.262 -11934010.859 13692713.997 10 0 59709 21600.00000 0 -19101240.261 -12944109.196 10945898.733 10 0 59709 22500.00000 0 -20074139.701 -13619487.106 7987210.321 10 0 59709 23400.00000 0 -20812244.485 -13977052.045 4873925.281 10 0 59709 24300.00000 0 -21264536.473 -14045623.232 1666301.966 10 0 59709 25200.00000 0 -21388759.434 -13864492.068 -1573574.946 10 0 59709 26100.00000 0 -21153310.868 -13481555.065 -4782985.301 10 0 59709 27000.00000 0 -20538707.372 -12951097.692 -7899777.482 10 0 59709 27900.00000 0 -19538561.653 -12331321.951 -10863563.046 10 0 59709 28800.00000 0 -18160029.368 -11681721.186 -13616879.432 10 0 59709 29700.00000 0 -16423705.714 -11060412.109 -16106298.798 10 0 59709 30600.00000 0 -14362974.370 -10521535.876 -18283461.955 10 0 59709 31500.00000 0 -12022834.064 -10112837.417 -20106017.568 10 0 59709 32400.00000 0 -9458249.562 -9873525.019 -21538448.583 10 0 59709 33300.00000 0 -6732093.683 -9832500.700 -22552769.742 10 0 59709 34200.00000 0 -3912764.071 -10007036.729 -23129082.288 10 0 59709 35100.00000 0 -1071572.141 -10401955.279 -23255974.537 10 0 59709 36000.00000 0 1719988.642 -11009347.307 -22930759.638 10 0 59709 36900.00000 0 4392982.399 -11808844.333 -22159544.804 10 0 59709 37800.00000 0 6883664.978 -12768433.530 -20957129.400 10 0 59709 38700.00000 0 9135903.021 -13845783.619 -19346732.435 10 0 59709 39600.00000 0 11103276.813 -14990027.130 -17359553.460 10 0 59709 40500.00000 0 12750778.694 -16143924.957 -15034174.215 10 0 59709 41400.00000 0 14056035.515 -17246322.352 -12415811.715 10 0 59709 42300.00000 0 15010003.443 -18234792.489 -9555436.937 10 0 59709 43200.00000 0 15617105.856 -19048355.197 -6508776.212 10 0 59709 44100.00000 0 15894808.803 -19630154.688 -3335215.282 10 0 59709 45000.00000 0 15872652.638 -19929981.450 -96628.474 10 0 59709 45900.00000 0 15590781.968 -19906529.936 3143842.817 10 0 59709 46800.00000 0 15098037.709 -19529294.923 6323036.872 10 0 59709 47700.00000 0 14449693.938 -18780025.008 9379017.467 10 0 59709 48600.00000 0 13704937.430 -17653670.912 12252292.853 10 0 59709 49500.00000 0 12924198.579 -16158788.101 14886982.791 10 0 59709 50400.00000 0 12166448.389 -14317376.826 17231909.862 10 0 59709 51300.00000 0 11486577.105 -12164166.773 19241593.425 10 0 59709 52200.00000 0 10932965.939 -9745377.044 20877127.051 10 0 59709 53100.00000 0 10545354.428 -7117004.319 22106922.967 10 0 59709 54000.00000 0 10353092.773 -4342711.466 22907310.245 10 0 59709 54900.00000 0 10373851.693 -1491405.152 23262976.564 10 0 59709 55800.00000 0 10612842.629 1365396.550 23167246.596 10 0 59709 56700.00000 0 11062579.511 4156297.520 22622193.254 10 0 59709 57600.00000 0 11703190.529 6812745.408 21638581.151 10 0 59709 58500.00000 0 12503265.525 9271630.272 20235644.562 10 0 59709 59400.00000 0 13421202.473 11477654.084 18440705.075 10 0 59709 60300.00000 0 14406996.054 13385374.955 16288636.780 10 0 59709 61200.00000 0 15404393.209 14960843.303 13821189.472 10 0 59709 62100.00000 0 16353325.572 16182764.259 11086182.681 10 0 59709 63000.00000 0 17192517.343 17043139.982 8136585.575 10 0 59709 63900.00000 0 17862159.953 17547366.794 5029499.858 10 0 59709 64800.00000 0 18306542.067 17713784.525 1825064.470 10 0 59709 65700.00000 0 18476525.235 17572697.837 -1414697.646 10 0 59709 66600.00000 0 18331761.693 17164910.987 -4627069.187 10 0 59709 67500.00000 0 17842561.342 16539837.605 -7749842.393 10 0 59709 68400.00000 0 16991329.205 15753264.552 -10722514.683 10 0 59709 69300.00000 0 15773512.297 14864863.331 -13487453.434 10 0 59709 70200.00000 0 14198014.953 13935553.017 -15991007.965 10 0 59709 71100.00000 0 12287063.496 13024824.975 -18184547.608 10 0 59709 72000.00000 0 10075523.898 12188141.342 -20025405.988 10 0 59709 72900.00000 0 7609698.643 11474516.398 -21477713.347 10 0 59709 73800.00000 0 4945650.557 10924382.555 -22513100.701 10 0 59709 74700.00000 0 2147121.216 10567831.068 -23111261.805 10 0 59709 75600.00000 0 -716871.569 10423302.229 -23260361.461 10 0 59709 76500.00000 0 -3574659.036 10496781.190 -22957281.386 10 0 59709 77400.00000 0 -6354661.578 10781534.644 -22207697.773 10 0 59709 78300.00000 0 -8988130.578 11258400.914 -21025987.782 10 0 59709 79200.00000 0 -11411778.219 11896622.777 -19434965.362 10 0 59709 80100.00000 0 -13570185.514 12655189.207 -17465450.250 10 0 59709 81000.00000 0 -15417887.730 13484630.475 -15155677.279 10 0 59709 81900.00000 0 -16921049.443 14329191.327 -12550556.573 10 0 59709 82800.00000 0 -18058658.405 15129290.402 -9700798.532 10 0 59709 83700.00000 0 -18823187.757 15824161.270 -6661920.624 10 0 59709 84600.00000 0 -19220698.618 16354562.213 -3493155.768 10 0 59709 85500.00000 0 -19270379.027 16665438.484 -256284.638 99